This demonstration page uses our WeatherBlox Daily Observations layout. Learn more.

Left ArrowRight Arrow

41.55636, -103.73856

Hourly Observations for November 3, 2021

Temp ( °F °C ) Dew Point ( °F °C ) Humidity (%) Winds ( mph kmh ) Pressure ( in mb ) Visibility ( mi km ) Precip ( " mm )
12:58 am 00:58 Mostly Cloudy with Fog 37 2.5 36 2.2 98 98 WNW 8 13 30.32 1027 1 1 0.00 0.00
2:58 am 02:58 Mostly Cloudy with Fog 35 1.9 35 1.5 97 97 W 10 17 30.29 1026 3 5 0.00 0.00
3:58 am 03:58 Mostly Cloudy with Fog 34 1.3 34 1 98 98 W 8 13 30.29 1026 3 5 0.00 0.00
4:58 am 04:58 Mostly Cloudy with Fog 32 0.1 32 -0.1 99 99 W 6 9 30.30 1026 3 5 0.00 0.00
5:58 am 05:58 Mostly Cloudy with Freezing Fog 30 -1.3 29 -1.5 99 99 SW 5 7 30.33 1027 3 5 0.00 0.00
6:58 am 06:58 Partly Cloudy 29 -1.8 28 -2 99 99 WSW 6 9 30.35 1028 10 16 0.00 0.00
7:58 am 07:58 Sunny 30 -1 30 -1.2 99 99 WSW 8 13 30.35 1028 10 16 0.00 0.00
8:58 am 08:58 Sunny 35 1.5 35 1.4 99 99 W 10 17 30.35 1028 10 16 0.00 0.00
9:58 am 09:58 Sunny 40 4.3 39 3.8 97 97 WNW 7 11 30.35 1028 10 16 0.00 0.00
10:58 am 10:58 Sunny 44 6.7 42 5.3 91 91 WNW 8 13 30.32 1027 10 16 0.00 0.00
11:58 am 11:58 Sunny 51 10.3 35 1.7 56 56 NW 7 11 30.29 1026 10 16 0.00 0.00
12:58 pm 12:58 Sunny 53 11.6 34 1.3 50 50 WNW 10 17 30.26 1025 10 16 0.00 0.00
1:58 pm 13:58 Sunny 55 12.8 33 0.6 44 44 NW 10 17 30.22 1023 10 16 0.00 0.00
2:58 pm 14:58 Sunny 56 13.5 29 -1.6 35 35 NW 8 13 30.21 1023 10 16 0.00 0.00
3:58 pm 15:58 Sunny 56 13.6 31 -0.6 38 38 NW 9 15 30.21 1023 10 16 0.00 0.00
4:58 pm 16:58 Mostly Sunny 56 13.1 30 -1.1 38 38 Calm 30.21 1023 10 16 0.00 0.00
5:58 pm 17:58 Clear 52 11.2 31 -0.7 44 44 Calm 30.24 1024 10 16 0.00 0.00
6:58 pm 18:58 Clear 43 6.3 32 0.2 65 65 SSW 5 7 30.27 1025 10 16 0.00 0.00
7:58 pm 19:58 Clear 39 4 32 -0.1 75 75 SSW 6 9 30.27 1025 10 16 0.00 0.00
8:58 pm 20:58 Clear 37 3 31 -0.4 79 79 SSW 6 9 30.27 1025 10 16 0.00 0.00
9:58 pm 21:58 Clear 39 3.9 32 0.1 77 77 SSW 8 13 30.24 1024 10 16 0.00 0.00
10:58 pm 22:58 Clear 39 4 32 0.2 77 77 WSW 3 6 30.22 1023 10 16 0.00 0.00
11:58 pm 23:58 Clear 38 3.4 32 -0.2 78 78 SW 7 11 30.21 1023 10 16 0.00 0.00

Powered by AerisWeather